Regional Weather Roundup
Issued by NWS

Home | Current Version | Previous Version | Text Only | Print | Product List | Glossary On
Versions: 1 2 3 4 5 6 7 8 9 10 11 12 13 14 15 16 17 18 19 20 21 22 23 24 25 26 27 28 29 30 31 32 33 34 35 36 37 38 39 40 41 42 43 44 45 46 47 48 49 50
000
ASUS45 KPSR 300710
RWRAZ

ARIZONA REGIONAL HOURLY WEATHER ROUNDUP
NATIONAL WEATHER SERVICE PHOENIX AZ
1200 AM MST FRI JAN 30 2015

NOTE: FAIR INDICATES FEW OR NO CLOUDS BELOW 12,000 FEET WITH NO
SIGNIFICANT WEATHER AND/OR OBSTRUCTIONS TO VISIBILITY.

AZZ001>003-036-300800-
NORTHWEST ARIZONA

CITY           SKY/WX    TMP DP  RH WIND       PRES   REMARKS
BULLHEAD CITY  CLOUDY    64  46  52 NE8       30.04S
KINGMAN        LGT RAIN  49  47  93 N5        30.09F
$$

AZZ004>008-015-016-018-300800-
NORTH CENTRAL ARIZONA

CITY           SKY/WX    TMP DP  RH WIND       PRES   REMARKS
GRAND CANYON   LGT RAIN  37  35  92 E6        30.17F WCI  32
PRESCOTT       LGT RAIN  47  44  90 SE7       30.09F
FLAGSTAFF      LGT RAIN  38  36  92 E9        30.15F WCI  31
PAYSON         LGT RAIN  46  46 100 VRB3      30.15F
$$

AZZ009>014-017-300800-
NORTHEAST ARIZONA

CITY           SKY/WX    TMP DP  RH WIND       PRES   REMARKS
WINSLOW        LGT RAIN  44  43  96 S5        30.17F
SAINT JOHNS    LGT RAIN  40  38  93 E14       30.19F WCI  32
WINDOW ROCK    LGT SNOW  35  32  88 VRB3      30.27F FOG
SHOW LOW       LGT RAIN  39  39 100 CALM      30.20F
$$

AZZ023-300800-
GREATER PHOENIX AREA

CITY           SKY/WX    TMP DP  RH WIND       PRES   REMARKS
PHOENIX        RAIN      59  56  89 CALM      29.99F FOG
BUCKEYE          N/A     57  57 100 CALM      30.02S
LUKE AFB       LGT RAIN  58  57  95 NW2       29.99F
DEER VALLEY    LGT RAIN  58  55  90 E5        30.01S
SCOTTSDALE     LGT RAIN  58  56  93 CALM      30.02S
MESA-GATEWAY   CLOUDY    57  55  94 CALM      30.04S
$$

AZZ027-028-300800-
SOUTHWEST MARICOPA COUNTY AND PINAL COUNTY

CITY           SKY/WX    TMP DP  RH WIND       PRES   REMARKS
CASA GRANDE    CLOUDY    55  54  94 CALM      30.02F
$$

AZZ503-504-507>509-300800-
SOUTHEAST ARIZONA

CITY           SKY/WX    TMP DP  RH WIND       PRES   REMARKS
TUCSON         CLOUDY    60  51  72 E12       30.02F
DAVIS-MONTHAN  CLOUDY    56  55  95 E7        30.00F
NOGALES        CLOUDY    54  51  90 E3        30.06F
SIERRA VISTA   CLOUDY    52  48  87 SE10      30.10F
DOUGLAS        LGT RAIN  50  45  83 E17G25    30.13F
SAFFORD        LGT RAIN  52  45  77 E14       30.19R
$$

AZZ020-021-025-026-031-300800-
SOUTHWEST ARIZONA

CITY           SKY/WX    TMP DP  RH WIND       PRES   REMARKS
YUMA           CLOUDY    64  52  64 E7        29.98F
$$

CAZ031-033-041-043-047-048-061-300800-
SOUTHERN CALIFORNIA

CITY           SKY/WX    TMP DP  RH WIND       PRES   REMARKS
DOWNTOWN L.A.  CLOUDY    65  49  56 N3        30.02S
L.A. AIRPORT   CLOUDY    65  47  52 VRB6      30.02F
SAN DIEGO      CLOUDY    62  56  80 NW3       30.01F
BURBANK        LGT RAIN  63  45  51 NW5       30.03S
ONTARIO        LGT RAIN  63  47  55 SW6       30.02S
RIVERSIDE      CLOUDY    63  42  46 CALM      30.02S
PALM SPRINGS   CLOUDY    69  40  34 N7        30.00F
EL CENTRO NAS  CLOUDY    60  51  72 N5        29.96F
IMPERIAL       CLOUDY    62  48  60 CALM      29.96F
BLYTHE         CLOUDY    60  53  77 N7        29.98F
NEEDLES        CLOUDY    60  49  66 N3        30.02F
$$

NVZ020-UTZ003-300800-
SOUTHERN NEVADA-UTAH

CITY           SKY/WX    TMP DP  RH WIND       PRES   REMARKS
LAS VEGAS      CLOUDY    58  42  55 S8        30.03S
SALT LAKE CITY CLOUDY    39  35  86 CALM      30.24F
$$

NMZ009-TXZ055-300800-
NEW MEXICO-WEST TEXAS

CITY           SKY/WX    TMP DP  RH WIND       PRES   REMARKS
ALBUQUERQUE    CLOUDY    42  20  41 E22       30.40S
EL PASO        LGT RAIN  48  37  65 E12       30.34F
$$


........................KEY........................
SKY/WX - SKY CONDITION/WEATHER
TMP    - TEMPERATURE IN FAHRENHEIT
DP     - DEW POINT IN FAHRENHEIT
RH     - RELATIVE HUMIDITY IN PERCENT
WIND   - DIRECTION AND SPEED IN MILES PER HOUR (MPH)
VRB    - VARIABLE WIND DIRECTION
PRES   - MEAN SEA LEVEL PRESSURE IN INCHES OF MERCURY
         F - FALLING PRESSURE   R - RISING PRESSURE
         S - STEADY PRESSURE
VSB    - VISIBILITY IN MILES
HX     - HEAT INDEX IN FAHRENHEIT
WCI    - WIND CHILL INDEX IN FAHRENHEIT
TC     - TEMPERATURE IN CELSIUS WHICH IS ALSO KNOWN AS
         TEMPERATURE IN CENTIGRADE
AFB    - AIR FORCE BASE
         LUKE AFB IS LUKE AIR FORCE BASE
         DAVIS-MONTHAN IS DAVIS-MONTHAN AIR FORCE BASE
NAS    - NAVAL AIR STATION
         EL CENTRO NAS IS EL CENTRO NAVAL AIR STATION
N/A    - NOT AVAILABLE



USA.gov is the U.S. government's official web portal to all federal, state and local government web resources and services.